Location: Étang Rond
(42.7927°N, 1.0661°E)
Time: 23:26:20
(UTC+00:00)

ACS3 Solar Sail - Pass Details

Date: 08 November 2025
Orbit: 887 x 1001 km, 97.3° (Epoch: 13 December)

Event Time Altitude Azimuth Distance (km) Brightness Sun altitude
Rises 03:39:46 0° 9° (N) 3,525 4.9 -33.0°
Reaches altitude 10° 03:42:10 10° 8° (N) 2,592 4.2 -32.6°
Enters shadow 03:44:14 24° 4° (N) 1,817 3.3 -32.2°
